Météo par heure à Alkino-2

Ce jour, 14 Mai, Vendredi

Heure Température Précipitation Vent Pression Humidité
00:00 +20°C° 0 mm 1 m/s 754 mmHg 52%
01:00 +20°C° 0 mm 1 m/s 754 mmHg 53%
02:00 +19°C° 0 mm 1 m/s 754 mmHg 53%
03:00 +18°C° 0 mm 1 m/s 754 mmHg 53%
04:00 +17°C° 0 mm 2 m/s 754 mmHg 54%
05:00 +18°C° 0 mm 2 m/s 754 mmHg 53%
06:00 +19°C° 0 mm 2 m/s 754 mmHg 52%
07:00 +20°C° 0 mm 2 m/s 754 mmHg 50%
08:00 +23°C° 0 mm 2 m/s 754 mmHg 46%
09:00 +24°C° 0 mm 3 m/s 754 mmHg 42%
10:00 +26°C° 0 mm 3 m/s 755 mmHg 37%
11:00 +27°C° 0 mm 3 m/s 754 mmHg 34%
12:00 +28°C° 0 mm 3 m/s 754 mmHg 30%
13:00 +29°C° 0 mm 3 m/s 754 mmHg 27%
14:00 +29°C° 0 mm 3 m/s 754 mmHg 27%
15:00 +29°C° 0 mm 3 m/s 754 mmHg 27%
16:00 +29°C° 0 mm 3 m/s 753 mmHg 27%
17:00 +28°C° 0 mm 3 m/s 753 mmHg 33%
18:00 +27°C° 0 mm 3 m/s 753 mmHg 40%
19:00 +26°C° 0 mm 2 m/s 753 mmHg 46%
20:00 +24°C° 0 mm 2 m/s 753 mmHg 47%
21:00 +23°C° 0 mm 2 m/s 753 mmHg 49%
22:00 +21°C° 0 mm 2 m/s 752 mmHg 50%
23:00 +20°C° 0 mm 2 m/s 752 mmHg 52%

Demain, 15 Mai, Samedi

Heure Température Précipitation Vent Pression Humidité
00:00 +19°C° 0 mm 2 m/s 752 mmHg 53%
01:00 +19°C° 0 mm 2 m/s 752 mmHg 55%
02:00 +18°C° 0 mm 2 m/s 752 mmHg 55%
03:00 +18°C° 0 mm 2 m/s 752 mmHg 56%
04:00 +17°C° 0 mm 2 m/s 752 mmHg 56%
05:00 +18°C° 0 mm 2 m/s 753 mmHg 56%
06:00 +19°C° 0 mm 2 m/s 753 mmHg 55%
07:00 +20°C° 0 mm 3 m/s 753 mmHg 54%
08:00 +22°C° 0 mm 3 m/s 753 mmHg 48%
09:00 +25°C° 0 mm 4 m/s 753 mmHg 42%
10:00 +27°C° 0 mm 4 m/s 753 mmHg 37%
11:00 +28°C° 0 mm 4 m/s 753 mmHg 33%
12:00 +29°C° 0 mm 4 m/s 752 mmHg 30%
13:00 +30°C° 0 mm 4 m/s 752 mmHg 27%
14:00 +32°C° 0 mm 4 m/s 752 mmHg 27%
15:00 +32°C° 0 mm 4 m/s 752 mmHg 27%
16:00 +32°C° 0 mm 4 m/s 752 mmHg 27%
17:00 +30°C° 0 mm 3 m/s 752 mmHg 33%
18:00 +28°C° 0 mm 3 m/s 751 mmHg 39%
19:00 +27°C° 0 mm 2 m/s 751 mmHg 45%
20:00 +25°C° 0 mm 2 m/s 751 mmHg 46%
21:00 +24°C° 0 mm 2 m/s 751 mmHg 48%
22:00 +23°C° 0 mm 2 m/s 751 mmHg 49%
23:00 +21°C° 0 mm 2 m/s 751 mmHg 50%

Après-demain, 16 Mai, Dimanche

Heure Température Précipitation Vent Pression Humidité
00:00 +20°C° 0 mm 2 m/s 751 mmHg 51%
01:00 +20°C° 0 mm 2 m/s 751 mmHg 52%
02:00 +19°C° 0 mm 2 m/s 751 mmHg 52%
03:00 +19°C° 0 mm 2 m/s 751 mmHg 53%
04:00 +18°C° 0 mm 2 m/s 751 mmHg 53%
05:00 +19°C° 0 mm 2 m/s 752 mmHg 53%
06:00 +20°C° 0 mm 2 m/s 752 mmHg 52%
07:00 +23°C° 0 mm 2 m/s 752 mmHg 52%
08:00 +24°C° 0 mm 3 m/s 752 mmHg 47%
09:00 +26°C° 0 mm 3 m/s 752 mmHg 42%
10:00 +28°C° 0 mm 4 m/s 752 mmHg 37%
11:00 +29°C° 0 mm 4 m/s 751 mmHg 34%
12:00 +30°C° 0 mm 4 m/s 751 mmHg 31%
13:00 +32°C° 0 mm 4 m/s 751 mmHg 27%
14:00 +32°C° 0 mm 4 m/s 751 mmHg 27%
15:00 +32°C° 0 mm 4 m/s 751 mmHg 27%
16:00 +32°C° 0 mm 4 m/s 751 mmHg 27%
17:00 +30°C° 0 mm 3 m/s 750 mmHg 32%
18:00 +29°C° 0 mm 2 m/s 750 mmHg 36%
19:00 +28°C° 0 mm 2 m/s 750 mmHg 41%
20:00 +26°C° 0 mm 2 m/s 750 mmHg 44%
21:00 +25°C° 0 mm 2 m/s 750 mmHg 46%
22:00 +23°C° 0 mm 2 m/s 750 mmHg 49%
23:00 +23°C° 0 mm 2 m/s 750 mmHg 49%

17 Mai, Lundi

Heure Température Précipitation Vent Pression Humidité
00:00 +21°C° 0 mm 2 m/s 750 mmHg 50%
01:00 +20°C° 0 mm 3 m/s 750 mmHg 50%
02:00 +20°C° 0 mm 3 m/s 750 mmHg 52%
03:00 +20°C° 0 mm 2 m/s 750 mmHg 53%
04:00 +19°C° 0 mm 2 m/s 750 mmHg 54%
05:00 +20°C° 0 mm 2 m/s 750 mmHg 54%
06:00 +21°C° 0 mm 2 m/s 750 mmHg 55%
07:00 +23°C° 0 mm 2 m/s 750 mmHg 56%
08:00 +24°C° 0 mm 3 m/s 750 mmHg 51%
09:00 +26°C° 0 mm 3 m/s 750 mmHg 46%
10:00 +28°C° 0 mm 3 m/s 750 mmHg 41%
11:00 +29°C° 0 mm 3 m/s 750 mmHg 38%
12:00 +30°C° 0 mm 3 m/s 750 mmHg 35%
13:00 +31°C° 0 mm 3 m/s 750 mmHg 32%
14:00 +31°C° 0 mm 3 m/s 750 mmHg 32%
15:00 +31°C° 0 mm 3 m/s 749 mmHg 31%
16:00 +31°C° 0 mm 3 m/s 749 mmHg 30%
17:00 +29°C° 0.3 mm 3 m/s 749 mmHg 40%
18:00 +26°C° 0.3 mm 4 m/s 749 mmHg 49%
19:00 +22°C° 0.3 mm 4 m/s 749 mmHg 59%
20:00 +22°C° 0 mm 3 m/s 749 mmHg 57%
21:00 +21°C° 0 mm 3 m/s 749 mmHg 55%
22:00 +21°C° 0 mm 2 m/s 749 mmHg 53%
23:00 +20°C° 0 mm 2 m/s 749 mmHg 57%

18 Mai, Mardi

Heure Température Précipitation Vent Pression Humidité
00:00 +19°C° 0 mm 2 m/s 749 mmHg 61%
01:00 +19°C° 0 mm 2 m/s 749 mmHg 65%
02:00 +19°C° 0 mm 2 m/s 749 mmHg 65%
03:00 +18°C° 0 mm 2 m/s 749 mmHg 66%
04:00 +19°C° 0 mm 1 m/s 749 mmHg 66%
05:00 +20°C° 0.1 mm 1 m/s 749 mmHg 64%
06:00 +21°C° 0.1 mm 1 m/s 749 mmHg 61%
07:00 +22°C° 0.1 mm 1 m/s 749 mmHg 59%
08:00 +24°C° 0 mm 1 m/s 749 mmHg 54%
09:00 +26°C° 0 mm 2 m/s 749 mmHg 49%
10:00 +27°C° 0 mm 2 m/s 749 mmHg 44%
11:00 +28°C° 0 mm 2 m/s 749 mmHg 42%
12:00 +29°C° 0 mm 2 m/s 749 mmHg 39%
13:00 +30°C° 0 mm 2 m/s 749 mmHg 36%
14:00 +31°C° 0 mm 2 m/s 749 mmHg 35%
15:00 +31°C° 0 mm 2 m/s 748 mmHg 35%
16:00 +31°C° 0 mm 3 m/s 748 mmHg 34%
17:00 +29°C° 0 mm 3 m/s 748 mmHg 41%
18:00 +27°C° 0 mm 3 m/s 748 mmHg 48%
19:00 +25°C° 0 mm 3 m/s 748 mmHg 56%
20:00 +24°C° 0 mm 3 m/s 749 mmHg 60%
21:00 +21°C° 0 mm 3 m/s 749 mmHg 64%
22:00 +20°C° 0 mm 2 m/s 749 mmHg 69%
23:00 +19°C° 0 mm 2 m/s 749 mmHg 68%

19 Mai, Mercredi

Heure Température Précipitation Vent Pression Humidité
00:00 +20°C° 0 mm 1 m/s 749 mmHg 68%
01:00 +18°C° 0 mm 0 m/s 749 mmHg 68%
02:00 +17°C° 0 mm 0 m/s 749 mmHg 69%
03:00 +17°C° 0 mm 0 m/s 749 mmHg 71%
04:00 +17°C° 0 mm 0 m/s 749 mmHg 72%
05:00 +18°C° 0 mm 0 m/s 750 mmHg 69%
06:00 +19°C° 0 mm 0 m/s 750 mmHg 66%
07:00 +20°C° 0 mm 0 m/s 750 mmHg 62%
08:00 +24°C° 0 mm 1 m/s 750 mmHg 58%
09:00 +25°C° 0 mm 1 m/s 750 mmHg 54%
10:00 +27°C° 0 mm 2 m/s 751 mmHg 50%
11:00 +28°C° 0 mm 2 m/s 751 mmHg 47%
12:00 +29°C° 0 mm 2 m/s 750 mmHg 43%
13:00 +30°C° 0 mm 2 m/s 750 mmHg 40%
14:00 +30°C° 0 mm 2 m/s 750 mmHg 37%
15:00 +30°C° 0 mm 1 m/s 750 mmHg 35%
16:00 +30°C° 0 mm 1 m/s 750 mmHg 32%
17:00 +29°C° 0 mm 1 m/s 750 mmHg 36%
18:00 +28°C° 0 mm 1 m/s 750 mmHg 41%
19:00 +27°C° 0 mm 1 m/s 750 mmHg 45%
20:00 +26°C° 0 mm 2 m/s 750 mmHg 50%
21:00 +24°C° 0 mm 2 m/s 750 mmHg 54%
22:00 +23°C° 0 mm 2 m/s 750 mmHg 59%
23:00 +21°C° 0 mm 2 m/s 750 mmHg 62%
Voir plus

Nous avons besoin de votre consentement

Meteoprog et ses fournisseurs de services peuvent stocker et accéder à des données personnelles telles que des cookies, des identifiants d'appareils ou d'autres technologies similaires sur votre appareil et traiter ces données pour personnaliser le contenu et les publicités, ainsi que pour fournir des fonctionnalités de médias sociaux et analyser le trafic.

  • Stocker et/ou accéder à des informations sur votre appareil

    Des cookies, des identifiants d'appareils ou d'autres informations peuvent être stockés ou accessibles sur votre appareil aux fins indiquées ci-dessus.

  • Annonces et contenus personnalisés, mesure des annonces et des contenus, connaissance de l'audience et développement de produits

    Les annonces et le contenu peuvent être personnalisés en fonction d'un profil. D'autres données peuvent être ajoutées pour mieux personnaliser les annonces et le contenu. Les performances des publicités et du contenu peuvent être mesurées. Il est possible d'obtenir des informations sur le public qui a vu les publicités et le contenu. Ces données peuvent être utilisées pour développer ou améliorer l'expérience de l'utilisateur, les systèmes et les logiciels.

En cliquant sur "J'accepte", vous autorisez l'utilisation de cookies, des identifiants d'appareils, des balises web ou d'autres technologies similaires. Vos paramètres peuvent être modifiés dans le navigateur de votre appareil.

Dans certains cas, des intérêts légitimes peuvent être invoqués plutôt qu'un consentement. Vous pouvez en savoir plus à ce sujet dans notre Politique de confidentialité et de cookies.